SWR119 LSZS-LOWI

Flight info

Callsign SWR119
Flight time 0h 34m
Altitude 21000
Route RONAG Z119 KUSAM Z209 INN Y703 RTT RTT1B
Aircraft A319/M-SDE3FGHIRWY/LB1

Departure

Time 2026-04-21 07:29
Airport Engadin Airport (LSZS)

Arrival

Time 2026-04-21 08:03
Airport Innsbruck Airport (LOWI)
Time Latitude Longitude Altitude Speed Heading
2026-04-21 06:57 46.53099 9.88003 5613 ft 0 kts 227°
2026-04-21 07:22 46.53099 9.88002 5608 ft 1 kts 227°
2026-04-21 07:22 46.53084 9.87979 5612 ft 5 kts 228°
2026-04-21 07:23 46.53046 9.87948 5608 ft 7 kts 199°
2026-04-21 07:23 46.52998 9.87960 5610 ft 8 kts 143°
2026-04-21 07:23 46.52964 9.88046 5611 ft 12 kts 120°
2026-04-21 07:23 46.52935 9.88116 5606 ft 6 kts 128°
2026-04-21 07:24 46.52897 9.88111 5612 ft 6 kts 210°
2026-04-21 07:24 46.52864 9.88083 5611 ft 5 kts 210°
2026-04-21 07:24 46.52829 9.88055 5606 ft 6 kts 209°
2026-04-21 07:24 46.52788 9.88022 5608 ft 8 kts 209°
2026-04-21 07:25 46.52738 9.87980 5606 ft 9 kts 213°
2026-04-21 07:25 46.52717 9.87908 5609 ft 7 kts 292°
2026-04-21 07:25 46.52718 9.87906 5610 ft 0 kts 295°
2026-04-21 07:26 46.52719 9.87905 5610 ft 0 kts 295°
2026-04-21 07:27 46.52721 9.87897 5610 ft 1 kts 295°
2026-04-21 07:27 46.52727 9.87880 5614 ft 2 kts 295°
2026-04-21 07:27 46.52742 9.87859 5612 ft 4 kts 333°
2026-04-21 07:27 46.52779 9.87871 5606 ft 4 kts 28°
2026-04-21 07:28 46.52784 9.87875 5609 ft 8 kts 28°
2026-04-21 07:28 46.53094 9.88128 5613 ft 91 kts 29°
2026-04-21 07:28 46.53842 9.88738 5637 ft 151 kts 31°
2026-04-21 07:29 46.54731 9.89506 6411 ft 146 kts 32°
2026-04-21 07:29 46.55578 9.90314 7076 ft 145 kts 32°
2026-04-21 07:29 46.56413 9.91137 7601 ft 152 kts 33°
2026-04-21 07:29 46.57348 9.92036 7972 ft 171 kts 33°
2026-04-21 07:30 46.58282 9.93252 8429 ft 190 kts 45°
2026-04-21 07:30 46.59226 9.94710 8958 ft 204 kts 44°
2026-04-21 07:30 46.60212 9.96232 9611 ft 209 kts 44°
2026-04-21 07:30 46.61216 9.97779 10286 ft 211 kts 44°
2026-04-21 07:31 46.62232 9.99339 10924 ft 213 kts 43°
2026-04-21 07:31 46.63263 10.00917 11528 ft 216 kts 42°
2026-04-21 07:31 46.64307 10.02509 12147 ft 219 kts 41°
2026-04-21 07:31 46.65356 10.04103 12830 ft 223 kts 40°
2026-04-21 07:32 46.66440 10.05750 13611 ft 227 kts 39°
2026-04-21 07:32 46.67579 10.07434 14133 ft 244 kts 37°
2026-04-21 07:32 46.68849 10.09231 14611 ft 262 kts 37°
2026-04-21 07:32 46.70181 10.11104 15320 ft 269 kts 37°
2026-04-21 07:33 46.71535 10.13017 16096 ft 274 kts 37°
2026-04-21 07:33 46.72898 10.14996 16869 ft 281 kts 41°
2026-04-21 07:33 46.74050 10.17333 17680 ft 291 kts 49°
2026-04-21 07:33 46.75164 10.19779 18443 ft 295 kts 48°
2026-04-21 07:34 46.76350 10.22232 19114 ft 296 kts 40°
2026-04-21 07:34 46.77859 10.24203 19784 ft 287 kts 23°
2026-04-21 07:34 46.79613 10.25529 20201 ft 287 kts
2026-04-21 07:34 46.81589 10.26140 20353 ft 296 kts 354°
2026-04-21 07:35 46.83714 10.26241 20484 ft 316 kts 353°
2026-04-21 07:35 46.85984 10.26347 20612 ft 337 kts 354°
2026-04-21 07:35 46.88396 10.26479 20749 ft 357 kts 354°
2026-04-21 07:35 46.90949 10.26634 20879 ft 377 kts 355°
2026-04-21 07:36 46.93627 10.26814 21180 ft 390 kts 355°
2026-04-21 07:36 46.96317 10.27010 21662 ft 394 kts 355°
2026-04-21 07:36 46.99066 10.27212 22203 ft 397 kts 355°
2026-04-21 07:36 47.01833 10.27409 22722 ft 400 kts 355°
2026-04-21 07:37 47.04629 10.27736 23025 ft 409 kts
2026-04-21 07:37 47.07448 10.28831 23074 ft 432 kts 12°
2026-04-21 07:37 47.10216 10.30814 23060 ft 455 kts 26°
2026-04-21 07:37 47.12628 10.33956 23092 ft 475 kts 43°
2026-04-21 07:38 47.14328 10.38221 23065 ft 495 kts 64°
2026-04-21 07:38 47.15078 10.43153 23074 ft 507 kts 79°
2026-04-21 07:38 47.15487 10.48293 23068 ft 508 kts 79°
2026-04-21 07:38 47.15904 10.53447 23074 ft 508 kts 79°
2026-04-21 07:39 47.16337 10.58595 23075 ft 507 kts 78°
2026-04-21 07:39 47.16782 10.63735 23075 ft 508 kts 78°
2026-04-21 07:39 47.17231 10.68875 23073 ft 507 kts 78°
2026-04-21 07:39 47.17671 10.74012 23058 ft 505 kts 78°
2026-04-21 07:40 47.18100 10.79141 23079 ft 506 kts 79°
2026-04-21 07:40 47.18525 10.84282 23078 ft 507 kts 79°
2026-04-21 07:40 47.18946 10.89420 23067 ft 507 kts 78°
2026-04-21 07:40 47.19360 10.94495 23067 ft 508 kts 79°
2026-04-21 07:41 47.19778 10.99649 23072 ft 507 kts 78°
2026-04-21 07:41 47.20192 11.04790 23078 ft 507 kts 79°
2026-04-21 07:41 47.20606 11.09920 23060 ft 504 kts 79°
2026-04-21 07:41 47.21019 11.15048 22982 ft 510 kts 79°
2026-04-21 07:42 47.21443 11.20266 22161 ft 516 kts 79°
2026-04-21 07:42 47.21865 11.25515 21058 ft 514 kts 80°
2026-04-21 07:42 47.22261 11.30602 20359 ft 501 kts 80°
2026-04-21 07:42 47.22690 11.35647 19518 ft 492 kts 76°
2026-04-21 07:43 47.23518 11.40453 18785 ft 478 kts 68°
2026-04-21 07:43 47.24786 11.44881 18132 ft 461 kts 59°
2026-04-21 07:43 47.26309 11.48969 17332 ft 451 kts 57°
2026-04-21 07:43 47.27819 11.52975 16489 ft 445 kts 57°
2026-04-21 07:44 47.29306 11.56930 15673 ft 438 kts 58°
2026-04-21 07:44 47.30767 11.60834 14898 ft 432 kts 58°
2026-04-21 07:44 47.32207 11.64686 14135 ft 427 kts 58°
2026-04-21 07:44 47.33611 11.68442 13367 ft 422 kts 58°
2026-04-21 07:45 47.35016 11.72209 12597 ft 416 kts 59°
2026-04-21 07:45 47.36395 11.75916 12178 ft 405 kts 59°
2026-04-21 07:45 47.37709 11.79461 12037 ft 385 kts 59°
2026-04-21 07:45 47.38963 11.82851 11910 ft 366 kts 59°
2026-04-21 07:46 47.40152 11.86067 11794 ft 349 kts 59°
2026-04-21 07:46 47.41292 11.89149 11570 ft 335 kts 59°
2026-04-21 07:46 47.42366 11.92056 11436 ft 318 kts 59°
2026-04-21 07:46 47.43447 11.94772 11307 ft 296 kts 53°
2026-04-21 07:47 47.44668 11.97104 11172 ft 278 kts 46°
2026-04-21 07:47 47.45919 11.99180 10922 ft 266 kts 44°
2026-04-21 07:47 47.47176 12.01167 10708 ft 263 kts 44°
2026-04-21 07:47 47.48425 12.03142 10652 ft 263 kts 44°
2026-04-21 07:48 47.49665 12.05132 10655 ft 263 kts 45°
2026-04-21 07:48 47.50983 12.06980 10661 ft 260 kts 32°
2026-04-21 07:48 47.52568 12.08216 10661 ft 256 kts 15°
2026-04-21 07:48 47.54273 12.08702 10660 ft 251 kts 358°
2026-04-21 07:49 47.55986 12.08442 10661 ft 247 kts 341°
2026-04-21 07:49 47.57556 12.07467 10660 ft 243 kts 325°
2026-04-21 07:49 47.58851 12.05889 10664 ft 240 kts 309°
2026-04-21 07:49 47.59785 12.03867 10663 ft 237 kts 294°
2026-04-21 07:50 47.60294 12.01629 10660 ft 223 kts 280°
2026-04-21 07:50 47.60384 11.99386 10662 ft 217 kts 266°
2026-04-21 07:50 47.60094 11.97196 10658 ft 218 kts 253°
2026-04-21 07:50 47.59433 11.95174 10649 ft 220 kts 238°
2026-04-21 07:51 47.58445 11.93476 10656 ft 223 kts 224°
2026-04-21 07:51 47.57157 11.92170 10656 ft 227 kts 210°
2026-04-21 07:51 47.55661 11.91401 10657 ft 230 kts 193°
2026-04-21 07:51 47.54056 11.91256 10655 ft 235 kts 178°
2026-04-21 07:52 47.52443 11.91749 10656 ft 239 kts 166°
2026-04-21 07:52 47.50875 11.92557 10653 ft 240 kts 162°
2026-04-21 07:52 47.49323 11.93468 10658 ft 240 kts 161°
2026-04-21 07:52 47.47822 11.94317 10652 ft 225 kts 167°
2026-04-21 07:53 47.46333 11.94700 10657 ft 213 kts 182°
2026-04-21 07:53 47.44876 11.94517 10660 ft 208 kts 197°
2026-04-21 07:53 47.43525 11.93807 10660 ft 204 kts 211°
2026-04-21 07:53 47.42356 11.92659 10663 ft 201 kts 224°
2026-04-21 07:54 47.41221 11.91433 10530 ft 204 kts 213°
2026-04-21 07:54 47.39960 11.90480 10376 ft 203 kts 210°
2026-04-21 07:54 47.38688 11.89570 10213 ft 203 kts 210°
2026-04-21 07:54 47.37422 11.88626 10125 ft 205 kts 210°
2026-04-21 07:55 47.36178 11.87653 10034 ft 205 kts 213°
2026-04-21 07:55 47.34970 11.86590 9805 ft 201 kts 219°
2026-04-21 07:55 47.33963 11.85210 9556 ft 193 kts 234°
2026-04-21 07:55 47.33227 11.83610 9510 ft 186 kts 246°
2026-04-21 07:56 47.32743 11.81870 9512 ft 182 kts 256°
2026-04-21 07:56 47.32327 11.80096 9300 ft 183 kts 253°
2026-04-21 07:56 47.31978 11.78299 9007 ft 181 kts 259°
2026-04-21 07:56 47.31697 11.76477 8719 ft 183 kts 259°
2026-04-21 07:57 47.31436 11.74624 8398 ft 186 kts 261°
2026-04-21 07:57 47.31182 11.72775 8100 ft 186 kts 261°
2026-04-21 07:57 47.30926 11.70894 7787 ft 188 kts 260°
2026-04-21 07:57 47.30669 11.69002 7482 ft 189 kts 261°
2026-04-21 07:58 47.30409 11.67093 7160 ft 191 kts 260°
2026-04-21 07:58 47.30145 11.65160 6843 ft 193 kts 259°
2026-04-21 07:58 47.29880 11.63217 6521 ft 195 kts 259°
2026-04-21 07:58 47.29613 11.61266 6176 ft 192 kts 259°
2026-04-21 07:59 47.29354 11.59373 5863 ft 185 kts 259°
2026-04-21 07:59 47.29106 11.57563 5540 ft 176 kts 259°
2026-04-21 07:59 47.28870 11.55855 5248 ft 169 kts 259°
2026-04-21 07:59 47.28640 11.54195 4985 ft 160 kts 259°
2026-04-21 08:00 47.28434 11.52670 4740 ft 146 kts 257°
2026-04-21 08:00 47.28236 11.51235 4496 ft 140 kts 258°
2026-04-21 08:00 47.28048 11.49843 4289 ft 138 kts 258°
2026-04-21 08:00 47.27852 11.48468 4074 ft 136 kts 258°
2026-04-21 08:01 47.27651 11.47109 3849 ft 136 kts 258°
2026-04-21 08:01 47.27457 11.45746 3538 ft 136 kts 259°
2026-04-21 08:01 47.27266 11.44411 3251 ft 134 kts 258°
2026-04-21 08:02 47.26824 11.41766 2805 ft 133 kts 256°
2026-04-21 08:02 47.26660 11.40421 2656 ft 134 kts 262°
2026-04-21 08:02 47.26519 11.39057 2463 ft 135 kts 261°
2026-04-21 08:02 47.26375 11.37686 2237 ft 136 kts 261°
2026-04-21 08:03 47.26225 11.36296 2016 ft 138 kts 261°
2026-04-21 08:03 47.26082 11.34925 1910 ft 126 kts 260°
2026-04-21 08:03 47.25963 11.33876 1903 ft 82 kts 261°
2026-04-21 08:03 47.25902 11.33298 1904 ft 26 kts 256°
2026-04-21 08:04 47.25844 11.33162 1906 ft 11 kts 248°
2026-04-21 08:04 47.25888 11.33180 1899 ft 10 kts 68°
2026-04-21 08:04 47.25902 11.33291 1906 ft 12 kts 81°
2026-04-21 08:04 47.25916 11.33418 1907 ft 13 kts 81°
2026-04-21 08:05 47.25930 11.33552 1903 ft 14 kts 82°
2026-04-21 08:05 47.25907 11.33682 1909 ft 14 kts 125°
2026-04-21 08:05 47.25843 11.33812 1907 ft 17 kts 124°
2026-04-21 08:05 47.25779 11.33959 1905 ft 18 kts 110°
2026-04-21 08:06 47.25780 11.34147 1901 ft 19 kts 81°
2026-04-21 08:06 47.25802 11.34346 1907 ft 20 kts 81°
2026-04-21 08:06 47.25824 11.34556 1897 ft 21 kts 81°
2026-04-21 08:06 47.25848 11.34775 1907 ft 22 kts 81°
2026-04-21 08:07 47.25873 11.34999 1907 ft 21 kts 80°
2026-04-21 08:07 47.25887 11.35130 1904 ft 10 kts 84°
2026-04-21 08:07 47.25841 11.35168 1907 ft 7 kts 172°
2026-04-21 08:07 47.25827 11.35171 1901 ft 0 kts 172°